Location: Góry Miechowskie
(50.3599°N, 20.1803°E)
Time: 11:31:31
(UTC+00:00)

Cosmos 2058 Rocket - Pass Details

Date: 15 June 2024
Orbit: 606 x 636 km, 82.5° (Epoch: 16 July)

Event Time Altitude Azimuth Distance (km) Brightness Sun altitude
Rises 01:30:55 0° 351° (N) 2,932 7.2 -7.2°
Reaches altitude 10° 01:33:12 10° 355° (N) 2,015 6.4 -7.0°
Maximum altitude 01:37:38 67° 78° (ENE) 682 3.5 -6.5°
Drops below altitude 10° 01:42:00 10° 161° (SSE) 1,980 5.4 -6.1°
Sets 01:44:13 0° 164° (SSE) 2,875 6.2 -5.8°
